Preview of NWS' New Version of Forecast
This preview is not operational and should not be used for support decisions.

Regional Weather Roundup (RWR)

Issued by National Weather Service (NWS)

                            
000
ASUS44 KMEG 210710
RWRTN 
TENNESSEE HOURLY STATE WEATHER ROUNDUP
NATIONAL WEATHER SERVICE MEMPHIS TN
200 AM CDT SAT SEP 21 2019

TNZ002-004-019-021-049-052-054-088>092-210800-
WEST TENNESSEE
  
CITY           SKY/WX    TMP DP  RH WIND       PRES   REMARKS
MEMPHIS INTL   FAIR      73  64  73 S9        30.15S                  
NWS MEMPHIS      N/A     72 N/A N/A MISG        N/A                   
JACKSON        FAIR      65  63  93 SE3       30.18S                  
DYERSBURG      FAIR      71  65  81 SE5       30.17S                  
SOMERVILLE     CLEAR     72  63  73 VRB5      30.16S                  
COVINGTON      CLEAR     68  63  83 CALM      30.15F                  
UNION CITY     CLEAR     70  64  83 SE6       30.16S                  
BOLIVAR        CLEAR     64  63  94 CALM      30.17S                  
PARIS          CLEAR     70  63  78 S7        30.18S                  
HUNTINGDON     CLEAR     70  64  83 CALM      30.18S                  
LEXINGTON      CLEAR     66  64  94 CALM      30.18S                  
SELMER         CLEAR     70  63  78 S6        30.18S                  
SAVANNAH       CLEAR     66  63  88 CALM      30.19S                  
$$

TNZ008-025-027-028-033-062-065-066-210800-
NORTH MIDDLE TENNESSEE
  
CITY           SKY/WX    TMP DP  RH WIND       PRES   REMARKS
NASHVILLE      FAIR      72  58  61 S3        30.23R                  
DICKSON        SUNNY     72  59  64 S7        30.21S                  
PORTLAND       CLEAR     68  63  83 S6        30.22S                  
CLARKSVILLE    FAIR      68  64  87 CALM      30.19S                  
LEBANON        MOSUNNY   72  57  60 S3        30.21S                  
SMYRNA         FAIR      68  61  78 SE6       30.24R                  
MURFREESBORO   PTSUNNY   70  57  64 CALM      30.21S                  
LIVINGSTON     SUNNY     70  57  64 SW5       30.26S                  
CROSSVILLE     FAIR      65  55  70 CALM      30.31S                  
ROCKWOOD       SUNNY     66  57  72 SW7       30.29S                  
$$

TNZ061-075-076-078-094-096-097-210800-
SOUTH MIDDLE TENNESSEE
  
CITY           SKY/WX    TMP DP  RH WIND       PRES   REMARKS
LAWRENCEBURG   MOSUNNY   68  57  68 SE6       30.22F                  
LEWISBURG      SUNNY     66  57  72 SE5       30.22F                  
FAYETTEVILLE   CLEAR     64  57  77 S3        30.23F                  
TULLAHOMA      CLEAR     61  57  88 CALM      30.24F                  
WINCHESTER     CLEAR     68  55  64 S5        30.25S                  
MCMINNVILLE    CLEAR     66  57  72 CALM      30.25S                  
COLUMBIA       CLEAR     70  59  68 CALM      30.20S                  
SHELBYVILLE    CLEAR     64  59  82 E5        30.24S                  
$$

TNZ017-018-042-046-047-210800-
NORTHEAST TENNESSEE
  
CITY           SKY/WX    TMP DP  RH WIND       PRES   REMARKS
TRI CITIES     FAIR      59  57  93 CALM      30.30S                  
ELIZABETHTON   FAIR      63  59  88 NE5       30.30S                  
GREENEVILLE    SUNNY     64  59  82 CALM      30.28F                  
$$

TNZ012-013-036-069-073-074-210800-
CENTRAL EAST TENNESSEE
  
CITY           SKY/WX    TMP DP  RH WIND       PRES   REMARKS
KNOXVILLE      NOT AVBL                                               
OAK RIDGE      FAIR      67  61  81 CALM      30.29R                  
DOWNTOWN KNOXV PTCLDY    64  64 100 CALM      30.27S                  
GATLINBURG     MOCLDY    66  64  94 CALM      30.27S                  
MORRISTOWN     MOCLDY    66  63  88 CALM      30.27S                  
JACKSBORO      CLEAR     63  61  94 CALM      30.30F                  
$$

TNZ083-085-099-210800-
SOUTHEAST TENNESSEE
  
CITY           SKY/WX    TMP DP  RH WIND       PRES   REMARKS
CHATTANOOGA    FAIR      67  59  75 CALM      30.27S                  
$$

SKY/WX REPORTED AS FAIR MEANS FEW OR NO CLOUDS BELOW
12 THOUSAND FEET.